TimeEDT,TemperatureF,Dew PointF,Humidity,Sea Level PressureIn,VisibilityMPH,Wind Direction,Wind SpeedMPH,Gust SpeedMPH,PrecipitationIn,Events,Conditions,WindDirDegrees,DateUTC
12:51 AM,72.0,71.1,97,30.08,5.0,Calm,Calm,-,N/A,,Clear,0,2013-07-19 04:51:00
1:51 AM,72.0,70.0,93,30.06,6.0,Calm,Calm,-,N/A,,Clear,0,2013-07-19 05:51:00
2:51 AM,72.0,70.0,93,30.05,5.0,Calm,Calm,-,N/A,,Clear,0,2013-07-19 06:51:00
3:51 AM,69.1,69.1,100,30.06,3.0,Calm,Calm,-,N/A,,Clear,0,2013-07-19 07:51:00
4:51 AM,69.1,69.1,100,30.05,3.0,Calm,Calm,-,N/A,,Clear,0,2013-07-19 08:51:00
5:39 AM,68.0,68.0,100,30.17,2.5,Calm,Calm,-,N/A,,Clear,0,2013-07-19 09:39:00
5:46 AM,68.0,66.2,94,30.17,3.0,Calm,Calm,-,N/A,,Clear,0,2013-07-19 09:46:00
5:51 AM,68.0,68.0,100,30.06,3.0,Calm,Calm,-,N/A,,Clear,0,2013-07-19 09:51:00
6:20 AM,69.8,68.0,94,30.17,2.5,South,3.5,-,N/A,,Clear,180,2013-07-19 10:20:00
6:28 AM,69.8,68.0,94,30.17,3.0,South,4.6,-,N/A,,Clear,180,2013-07-19 10:28:00
6:51 AM,70.0,68.0,93,30.17,4.0,South,3.5,-,N/A,,Clear,190,2013-07-19 10:51:00
7:51 AM,73.0,70.0,90,30.05,6.0,South,3.5,-,N/A,,Clear,190,2013-07-19 11:51:00
8:51 AM,75.0,70.0,84,30.07,9.0,SW,5.8,-,N/A,,Clear,220,2013-07-19 12:51:00
9:51 AM,78.1,70.0,76,30.07,10.0,SW,6.9,-,N/A,,Clear,230,2013-07-19 13:51:00
10:51 AM,79.0,71.1,77,30.07,10.0,WSW,5.8,-,N/A,,Unknown,240,2013-07-19 14:51:00
12:51 PM,81.0,72.0,74,30.06,10.0,WSW,6.9,-,N/A,,Unknown,250,2013-07-19 16:51:00
1:51 PM,79.0,72.0,79,30.03,8.0,West,5.8,-,N/A,,Clear,270,2013-07-19 17:51:00
2:51 PM,81.0,72.0,74,30.01,10.0,Variable,3.5,-,N/A,,Partly Cloudy,0,2013-07-19 18:51:00
3:51 PM,84.0,71.1,65,29.98,10.0,Variable,5.8,-,N/A,,Partly Cloudy,0,2013-07-19 19:51:00
4:51 PM,84.0,71.1,65,29.96,10.0,SSW,5.8,-,N/A,,Partly Cloudy,210,2013-07-19 20:51:00
5:51 PM,82.0,72.0,71,29.97,10.0,SW,11.5,17.3,N/A,,Mostly Cloudy,220,2013-07-19 21:51:00
6:51 PM,79.0,66.9,66,29.97,10.0,SW,9.2,17.3,N/A,,Clear,220,2013-07-19 22:51:00
7:51 PM,77.0,69.1,76,29.97,10.0,SW,8.1,-,N/A,,Clear,220,2013-07-19 23:51:00
8:51 PM,75.0,69.1,82,30.01,10.0,West,6.9,-,N/A,,Clear,280,2013-07-20 00:51:00
9:51 PM,73.9,69.1,85,30.02,10.0,North,9.2,-,N/A,,Scattered Clouds,360,2013-07-20 01:51:00
10:51 PM,71.1,68.0,90,29.99,10.0,Calm,Calm,-,0.00,Rain,Light Rain,0,2013-07-20 02:51:00
11:51 PM,72.0,70.0,93,29.97,10.0,South,4.6,-,0.00,,Clear,190,2013-07-20 03:51:00